EST,Max TemperatureF,Mean TemperatureF,Min TemperatureF,Max Dew PointF,MeanDew PointF,Min DewpointF,Max Humidity, Mean Humidity, Min Humidity, Max Sea Level PressureIn, Mean Sea Level PressureIn, Min Sea Level PressureIn, Max VisibilityMiles, Mean VisibilityMiles, Min VisibilityMiles, Max Wind SpeedMPH, Mean Wind SpeedMPH, Max Gust SpeedMPH,PrecipitationIn, CloudCover, Events, WindDirDegrees
2013-2-1,19,16,12,10,6,3,73,64,50,30.21,30.12,29.89,10,9,4,20,15,26,0.00,7,Snow,256
2013-2-2,18,13,8,11,7,0,81,71,56,30.16,30.06,29.99,10,6,2,15,9,,0.00,7,Snow,265
2013-2-3,19,13,7,12,7,0,80,71,61,30.04,29.92,29.82,10,7,2,18,7,23,0.00,6,Snow,252
2013-2-4,19,14,9,12,9,5,84,78,68,30.03,29.98,29.93,10,7,1,6,3,,0.00,5,Snow,217
2013-2-5,28,16,5,22,12,1,84,75,65,29.99,29.86,29.74,10,8,0,17,7,20,0.00,6,Snow,223
2013-2-6,28,19,10,19,13,8,92,72,58,30.30,30.23,30.03,10,10,6,10,5,,0.00,3,Snow,221
2013-2-7,32,28,24,27,22,16,88,80,63,30.28,30.13,29.96,10,4,0,15,9,,0.10,8,Fog-Snow,107
2013-2-8,28,20,12,26,18,9,93,78,58,30.39,30.10,29.91,10,4,0,24,17,31,0.02,5,Snow,8
2013-2-9,26,14,1,15,7,-2,92,80,60,30.48,30.40,30.30,10,8,0,8,4,,0.00,0,,214
2013-2-10,39,22,6,34,14,1,92,81,59,30.29,30.05,29.64,10,4,0,17,5,25,0.16,4,Fog-Rain,94
2013-2-11,43,38,32,39,31,25,93,78,64,29.81,29.58,29.48,10,10,6,31,17,38,0.00,8,,218
2013-2-12,32,30,26,24,21,18,76,71,64,30.03,29.95,29.84,10,10,10,21,16,25,0.00,8,,259
2013-2-13,33,30,26,26,23,19,80,75,70,29.93,29.80,29.72,10,8,7,14,8,,0.00,7,,209
2013-2-14,39,34,30,32,29,22,89,81,70,29.84,29.70,29.60,10,6,0,21,10,32,0.02,8,Rain-Snow,208
2013-2-15,30,26,19,23,15,10,80,66,53,30.15,30.03,29.82,10,10,2,20,12,26,0.00,6,Snow,293
2013-2-16,21,16,12,16,13,6,86,79,68,30.13,30.05,30.00,10,7,1,13,5,,0.00,7,Snow,355
2013-2-17,23,14,6,6,3,0,76,61,44,30.23,30.19,30.13,10,10,10,14,7,,0.00,2,,307
2013-2-18,43,30,18,34,19,6,76,61,50,30.19,29.87,29.53,10,10,10,21,11,28,0.01,4,Rain,155
2013-2-19,44,32,19,38,22,8,88,77,62,29.90,29.61,29.32,10,5,0,31,20,39,0.09,8,Fog-Rain-Snow,248
2013-2-20,21,18,15,13,9,5,73,65,57,30.27,30.11,29.92,10,10,6,21,15,31,0.00,7,Snow,298
2013-2-21,21,18,15,19,11,7,89,72,65,30.43,30.37,30.27,10,10,9,16,10,,0.00,6,Snow,48
2013-2-22,33,26,21,29,22,15,93,86,75,30.29,29.99,29.84,10,4,0,18,12,25,0.08,8,Fog-Snow,110
2013-2-23,33,30,25,30,24,20,89,79,69,29.91,29.85,29.82,10,5,1,22,14,25,0.00,8,Snow,224
2013-2-24,35,30,24,27,22,19,88,77,52,30.16,29.97,29.86,10,5,2,12,9,,0.00,8,Snow,257
2013-2-25,37,32,25,23,20,18,75,64,51,30.25,30.19,30.16,10,10,10,9,3,,0.00,5,,147
2013-2-26,35,28,21,31,26,16,92,80,70,30.17,29.85,29.60,10,6,0,24,14,31,0.08,4,Fog-Snow,57
2013-2-27,35,34,33,32,31,30,93,90,87,29.60,29.55,29.51,10,3,0,18,13,,0.09,8,Fog-Snow,43
2013-2-28,35,32,28,31,28,19,92,80,64,30.02,29.75,29.59,10,8,2,18,13,24,0.01,8,Snow,360